RH
92 92 92 93 93 93 92 92 93 93 93 93 93 93 92 90 90 91 91 92 92 91 92 95 95 93 88 83 75 41 62 55 43 46 45 44 45 49 50 45 44 38 34 29 26 22 27
93 93 93 93 93 93 93 93 93 94 93 94 94 94 93 92 91 91 92 92 93 94 93 93 93 93 87 96 50 45 42 41 41 45 44 44 45 40 45 46 49 41 38 35 33 30 26
93 93 93 93 94 94 93 94 94 94 94 94 94 94 94 93 92 92 93 94 94 95 94 92 92 86 94 86 55 49 49 50 46 43 45 41 39 44 45 49 40 42 43 34 33 32 25
93 93 93 93 94 95 95 94 94 94 94 95 94 95 95 95 94 95 95 96 96 96 95 95 93 84 96 62 59 59 54 53 47 45 42 39 40 45 48 43 44 43 43 50 41 31 27
94 94 94 94 95 95 95 95 95 95 94 95 95 95 96 96 96 96 96 97 97 97 97 94 96 96 95 60 61 50 52 55 45 43 45 35 44 50 51 56 59 54 61 55 44 31 31
94 97 97 97 97 97 96 96 96 96 96 96 96 96 96 96 97 97 98 98 94 94 88 81 82 95 86 72 50 41 45 47 48 49 44 50 52 55 59 62 80 71 62 60 51 39 39
92 93 93 92 94 94 96 98 98 98 98 98 98 98 98 98 98 98 98 90 96 97 95 88 81 84 60 57 50 45 37 44 47 50 55 48 65 67 56 51 49 53 56 56 48 35 40
90 90 91 94 93 93 92 93 96 96 96 96 95 96 95 95 95 94 87 97 83 84 96 82 78 71 57 50 64 50 41 53 54 63 54 60 65 49 47 51 53 52 56 56 45 39 39
92 92 90 88 90 93 94 91 94 94 94 94 94 93 92 92 92 95 93 84 77 79 98 80 73 77 71 64 77 68 55 55 63 64 68 68 55 45 50 51 58 58 62 60 59 48 42
92 94 93 92 90 91 93 92 94 95 95 95 95 94 93 92 96 95 95 79 84 78 99 74 78 66 61 64 73 53 55 62 71 74 66 72 56 57 59 60 54 64 47 49 51 57 68
93 94 94 92 92 94 95 94 94 93 94 96 96 96 94 89 97 95 93 94 92 87 99 54 61 48 56 71 60 50 55 65 78 70 65 67 67 66 66 58 50 56 48 53 57 62 61
91 90 92 93 94 96 95 95 94 93 93 93 95 94 97 98 99 91 92 95 95 100 96 62 55 72 80 71 63 51 65 61 65 76 67 63 53 54 51 48 48 48 51 51 53 67 84
87 89 89 92 95 95 94 93 92 93 93 92 92 95 97 93 94 87 97 99 100 99 60 56 57 71 75 79 73 58 64 65 81 94 94 77 74 58 51 62 53 59 66 94 93 95 88
86 86 87 89 88 92 93 90 91 92 92 92 93 95 93 96 96 97 99 100 99 89 69 48 44 52 80 67 72 68 67 78 64 67 74 79 76 64 57 62 60 58 64 83 84 90 84
83 84 86 86 89 87 87 92 91 90 93 93 94 99 100 96 97 99 100 100 92 82 56 54 51 59 81 58 62 67 75 66 62 60 74 82 76 48 50 50 52 66 71 51 72 76 96
77 80 84 84 85 86 90 90 90 89 90 92 100 99 97 90 97 99 100 98 96 72 56 67 81 71 84 66 66 62 63 67 61 56 55 70 82 54 49 43 50 55 55 80 90 98 97
75 76 77 79 82 87 87 88 90 90 87 87 100 100 90 97 96 100 99 100 95 77 71 67 94 94 90 93 80 71 82 68 61 62 61 66 79 72 62 56 60 68 81 92 86 98 93
75 76 78 79 78 80 81 84 84 88 92 92 98 100 92 95 99 100 99 100 94 84 65 70 76 85 88 80 98 93 90 82 76 80 83 89 96 99 73 69 70 78 83 92 99 98 99
77 77 77 76 77 78 78 78 80 86 91 98 100 100 95 100 99 99 99 98 95 95 91 97 97 86 66 77 89 74 72 80 82 85 90 87 98 93 93 90 86 94 92 95 100 100 98
77 78 78 73 74 76 80 79 79 78 89 97 100 100 100 100 97 95 96 99 100 95 95 90 98 98 99 96 76 82 73 89 87 84 87 85 100 91 79 89 89 98 97 94 90 98 95
80 77 81 78 76 74 77 79 78 80 85 98 100 99 92 99 98 98 86 94 86 84 91 91 96 95 100 99 100 96 76 90 86 85 90 91 98 99 95 99 98 96 80 88 87 77 91
84 81 80 80 78 75 75 77 83 84 82 99 100 100 99 99 90 97 96 98 91 81 96 84 97 95 98 99 100 100 99 98 96 89 91 90 96 95 92 72 93 93 78 74 68 64 60
77 76 75 79 87 75 73 79 81 82 84 99 99 97 100 98 97 95 95 90 89 90 79 79 98 94 94 88 94 96 96 99 98 100 99 99 96 95 90 79 82 98 83 75 64 56 58
78 74 72 73 73 79 76 79 81 82 81 85 91 98 99 97 98 90 77 78 88 85 87 74 79 94 79 85 91 90 98 96 95 96 95 100 98 94 94 86 97 62 56 59 63 56 49
82 76 72 73 73 78 78 78 82 82 82 82 89 98 98 100 89 92 90 93 90 88 90 97 93 85 92 96 100 98 99 98 95 83 94 96 100 98 96 91 70 58 47 50 61 58 55
87 80 74 73 72 77 82 80 81 77 82 81 90 96 94 95 93 89 96 99 99 97 99 94 79 84 95 99 99 97 89 93 86 80 76 91 96 99 97 91 90 57 69 54 51 76 79
77 78 75 73 76 76 81 80 82 85 82 90 94 92 97 94 92 93 97 98 99 93 96 86 84 84 88 98 97 96 94 76 90 92 95 96 98 97 97 97 82 72 77 70 67 64 84
78 79 79 74 76 78 82 81 82 84 83 92 97 94 94 100 92 92 82 87 83 87 90 74 80 84 91 96 98 97 96 91 89 73 94 97 93 96 97 97 96 77 74 73 77 84 74
81 79 81 76 76 79 81 82 84 88 84 87 98 90 93 95 90 83 75 68 73 73 75 78 79 75 88 96 98 95 95 92 90 94 75 96 98 95 99 99 95 85 78 78 83 83 76
Wind_Speed
17 17 16 16 16 16 16 15 15 15 15 15 14 13 13 14 14 12 11 11 11 11 9 9 12 13 7 3 15 8 12 10 6 2 2 3 6 3 5 4 4 6 6 10 8 8 7
18 18 17 17 18 18 18 17 16 16 16 15 14 14 13 14 13 13 12 11 12 10 9 7 9 10 3 19 7 6 6 5 7 4 6 7 7 4 7 7 7 5 9 16 9 6 5
19 18 18 19 19 19 19 18 17 17 17 16 15 15 14 14 13 13 13 12 12 11 10 10 7 3 8 28 10 16 18 16 14 13 13 8 6 5 4 7 8 7 7 11 8 6 8
20 20 20 20 19 19 19 19 19 19 18 18 18 16 15 15 14 13 13 13 12 12 11 9 7 4 12 7 12 18 15 19 16 15 18 9 7 8 5 7 7 9 4 8 2 5 7
21 21 21 20 18 19 20 20 20 20 20 19 19 18 16 17 16 14 13 13 12 11 11 3 4 6 10 8 8 11 13 12 5 8 13 10 6 9 3 2 7 5 11 9 12 9 6
6 7 10 14 15 18 20 20 20 20 20 19 19 19 18 18 16 14 12 9 6 6 6 6 6 3 7 15 4 4 7 7 6 4 3 8 6 7 3 7 17 4 6 7 7 3 2
5 6 4 4 6 8 11 13 15 16 17 16 15 15 14 15 15 13 5 2 4 5 6 15 13 9 2 6 7 8 6 2 3 4 7 6 6 12 19 17 11 8 14 12 6 12 8
4 5 6 8 6 5 2 1 1 2 4 5 6 6 7 6 7 8 4 5 3 2 11 20 20 25 22 12 25 17 3 6 8 11 5 4 17 10 12 7 11 15 17 17 13 13 14
8 8 7 4 6 8 6 1 2 2 4 4 2 3 6 7 4 1 3 4 4 5 6 9 14 14 11 20 28 26 15 17 18 17 8 15 6 11 12 14 11 17 18 13 18 11 18
10 9 11 10 7 3 3 5 7 5 5 6 7 6 4 5 2 4 4 5 2 3 4 10 9 10 12 4 11 13 22 15 9 25 15 17 14 18 16 11 11 25 11 15 13 9 13
13 12 12 13 12 7 6 5 4 5 7 5 6 9 8 8 2 3 1 5 4 2 6 5 6 2 7 13 4 1 6 19 16 9 12 12 7 14 21 28 18 20 7 8 6 11 14
14 16 15 15 14 10 9 6 5 4 3 4 4 7 9 3 2 3 4 3 2 4 10 7 6 7 8 8 4 3 4 8 8 6 13 17 3 6 15 13 19 8 4 7 8 4 11
13 15 16 15 12 13 11 9 9 8 5 5 3 4 3 2 3 7 5 2 4 8 3 8 8 7 8 7 6 6 7 9 8 8 11 6 25 23 15 11 13 5 6 2 5 7 13
13 13 14 15 13 15 11 11 12 12 12 12 9 7 4 3 3 5 5 6 11 9 13 1 3 1 10 7 6 6 5 6 8 2 4 6 7 13 16 28 17 22 15 9 10 8 7
14 15 15 16 12 10 14 18 12 13 13 12 10 4 3 4 7 7 6 13 9 9 5 5 10 4 5 6 6 7 10 11 9 10 9 5 8 4 6 8 18 6 14 28 9 1 2
18 18 18 15 16 12 10 14 17 12 11 10 2 3 5 6 7 5 9 15 9 7 6 4 8 2 13 11 5 7 8 4 12 12 8 3 7 5 2 3 8 11 4 4 4 8 12
20 19 19 18 15 13 13 12 13 16 10 10 2 3 2 7 5 4 5 4 6 8 7 8 6 4 5 2 3 9 6 2 1 2 4 4 4 5 1 7 9 2 5 3 2 4 5
20 20 20 19 19 16 12 13 11 13 7 2 3 3 3 3 5 3 3 3 2 10 11 9 8 10 12 6 5 4 4 2 6 3 7 2 4 4 15 5 7 4 5 3 5 6 4
22 21 21 20 19 19 17 17 16 12 10 3 2 2 2 2 5 7 2 3 4 4 7 4 5 11 13 16 11 18 19 10 7 3 6 7 4 7 4 5 4 3 3 4 5 2 5
23 24 23 22 20 19 19 19 20 17 12 6 1 3 2 4 2 4 5 3 4 3 5 7 5 7 7 12 18 11 13 5 8 7 10 6 2 7 11 2 2 2 6 11 5 4 4
28 26 24 22 20 19 19 19 17 19 19 6 4 3 2 3 6 8 5 2 7 7 2 6 5 10 10 6 7 18 21 10 11 12 9 8 6 4 5 4 5 4 8 14 7 5 5
27 26 23 23 21 20 20 18 16 16 16 4 3 3 2 1 1 5 2 4 5 9 3 6 6 11 14 14 9 8 7 5 5 14 11 7 4 7 4 11 11 8 10 8 9 9 10
21 22 21 17 17 19 19 18 18 17 14 3 2 2 1 1 3 3 4 5 3 4 5 8 4 9 13 13 13 6 6 9 1 2 7 9 6 7 4 6 9 5 16 14 5 8 12
21 21 21 20 20 21 21 18 19 19 19 3 2 3 3 2 3 4 4 5 7 8 8 8 7 11 4 8 12 11 12 11 8 7 6 1 6 4 4 5 5 5 1 8 11 10 12
24 22 20 20 20 20 20 18 19 20 23 5 3 4 3 2 3 4 5 4 7 9 5 4 3 6 9 3 4 4 3 3 9 13 15 12 4 3 5 7 1 4 5 7 8 7 7
21 21 20 21 19 18 19 17 19 20 24 8 2 3 4 4 3 3 3 3 4 3 5 5 11 5 3 2 5 6 4 2 3 4 15 12 9 5 5 6 7 2 2 3 5 4 4
18 15 19 19 20 18 18 17 20 20 21 7 3 4 4 3 4 4 0 3 3 2 3 2 4 2 4 2 2 2 2 3 4 1 3 5 5 10 2 2 2 3 3 1 4 6 4
15 14 17 18 16 16 18 18 18 21 22 7 3 4 5 3 4 6 6 4 2 3 0 4 3 2 3 3 2 2 2 2 3 4 4 3 4 3 3 3 4 3 3 5 1 2 3
13 13 18 18 15 15 18 18 19 18 20 7 3 2 3 2 5 3 5 6 8 7 1 3 2 2 2 2 1 2 1 2 2 3 1 2 3 1 3 2 1 3 4 5 4 1 4
Wind_Direction
239 241 240 241 243 245 246 244 244 248 248 252 252 253 257 262 267 271 273 279 283 287 299 318 332 331 342 264 250 282 302 291 302 133 242 241 280 218 223 233 327 232 252 252 229 257 257
239 238 239 244 244 242 246 246 243 243 246 250 251 252 251 254 259 262 266 269 275 278 286 298 311 325 280 276 264 280 280 282 258 244 233 197 228 254 275 245 208 235 277 279 276 250 241
241 241 240 240 240 241 243 243 243 243 244 247 247 248 249 250 252 254 255 258 262 266 268 276 262 276 248 261 269 283 274 272 265 246 242 219 204 188 292 307 272 259 271 286 261 267 241
246 244 243 243 240 240 241 241 242 242 244 242 243 241 243 245 247 247 250 250 254 262 273 274 259 231 255 274 277 273 274 271 249 239 239 235 199 230 197 261 304 291 252 268 235 215 264
244 245 246 246 242 242 243 242 240 242 242 242 242 241 237 238 237 241 245 251 259 259 246 207 220 204 263 294 260 256 218 247 254 217 224 225 170 194 195 229 292 220 259 255 287 208 243
274 262 271 262 255 249 245 239 242 241 242 241 242 244 239 238 235 232 242 250 265 277 241 232 237 262 245 241 221 232 187 203 261 311 215 176 187 204 148 178 238 243 253 264 245 286 223
19 26 333 307 301 289 266 258 248 243 243 242 246 246 247 246 239 228 166 268 260 225 215 194 189 228 256 218 220 239 289 269 266 215 201 201 183 210 212 219 235 259 257 255 279 286 306
355 2 359 355 319 304 315 348 289 200 165 167 167 157 127 115 127 150 176 208 209 39 276 226 247 249 253 271 274 249 296 234 186 234 201 247 234 220 226 215 216 234 250 262 272 266 274
309 307 297 298 332 355 352 244 218 156 140 143 190 155 136 131 119 136 248 214 137 139 265 225 215 234 228 212 245 257 214 229 232 234 199 227 212 188 216 225 227 239 238 251 260 283 274
279 280 288 286 274 256 329 357 11 244 227 200 195 194 184 160 148 184 218 171 164 133 265 271 206 243 199 192 272 233 216 190 202 230 221 255 227 250 260 239 222 255 228 246 263 265 268
308 272 263 271 264 255 207 167 119 75 13 55 233 200 201 211 290 241 185 138 140 55 254 238 187 167 162 177 302 75 154 187 216 184 169 224 150 201 224 235 231 252 202 241 247 267 288
342 321 299 264 255 221 203 201 207 183 123 49 356 13 204 204 224 246 140 114 85 185 244 278 193 172 154 227 274 117 145 128 204 234 259 248 238 224 231 228 228 231 197 243 249 216 243
334 332 328 303 259 224 214 217 226 241 230 254 277 320 275 168 245 161 146 140 225 217 235 236 209 170 200 195 220 209 182 180 162 160 215 237 245 243 238 263 262 186 129 236 248 193 245
291 301 313 314 338 335 264 248 252 246 242 245 242 242 230 271 275 162 173 200 219 203 222 14 4 100 197 170 235 224 187 198 253 211 130 195 292 196 206 212 201 219 186 201 222 209 238
264 273 274 283 288 312 314 317 270 262 246 235 234 215 206 215 212 203 210 218 208 203 214 223 298 255 297 238 187 205 223 225 200 181 195 198 255 210 173 194 186 202 206 230 272 217 24
270 261 258 266 272 263 273 303 312 305 297 242 242 216 224 182 170 257 235 233 225 228 353 56 197 274 208 244 218 196 205 214 224 194 183 249 293 201 234 230 211 203 150 124 197 210 229
279 275 271 260 257 274 250 266 287 311 285 293 231 252 277 152 118 224 231 245 243 265 291 253 228 242 243 258 268 236 217 279 280 75 125 125 172 249 352 209 177 112 175 102 115 204 202
274 273 270 264 254 247 248 249 265 277 265 331 290 234 288 148 192 224 228 217 321 301 297 268 256 243 227 208 236 287 248 266 357 299 162 212 120 279 254 94 65 78 129 163 234 182 229
267 264 260 262 260 243 238 240 243 252 239 110 241 256 272 252 228 208 238 277 253 243 248 281 264 232 238 244 247 243 231 185 170 264 168 149 203 250 229 291 349 124 177 133 142 280 169
266 260 257 255 255 249 238 240 235 221 220 149 227 217 200 222 249 248 264 274 239 229 263 268 278 319 307 248 237 249 250 166 186 171 150 118 202 220 230 334 19 216 179 178 152 159 155
261 255 248 247 249 249 244 236 235 216 200 184 182 223 203 194 226 240 222 257 273 275 277 290 242 235 264 271 303 243 235 172 181 172 159 162 198 196 161 187 245 243 216 192 190 158 161
257 246 243 241 238 239 241 235 230 212 199 193 176 194 210 174 124 188 206 209 235 267 188 291 287 306 334 302 263 307 320 227 174 181 170 192 203 179 236 203 195 217 230 226 232 221 241
260 237 243 237 246 241 238 228 220 206 176 128 181 130 88 5 128 143 217 220 227 113 234 225 263 305 294 277 289 262 268 280 247 88 172 174 166 149 240 182 165 232 235 210 188 192 198
257 245 236 236 230 230 239 229 213 198 186 129 166 130 153 229 188 202 215 224 230 229 236 280 267 239 259 329 291 245 237 229 244 230 204 238 187 165 155 122 214 229 97 202 203 222 221
269 240 230 225 229 225 230 225 203 196 181 142 156 143 163 178 202 280 261 260 277 256 235 288 255 251 297 290 268 281 198 219 228 228 204 198 185 182 166 199 325 273 207 181 180 239 184
244 244 224 223 219 221 227 218 193 193 189 160 176 132 112 117 224 154 317 247 276 167 165 208 256 243 331 264 223 205 209 311 225 256 198 202 215 200 169 194 199 196 314 76 81 298 205
254 237 220 220 218 220 221 211 188 192 192 152 165 161 102 177 255 186 105 325 309 308 246 225 263 260 170 334 324 311 165 301 260 277 140 196 204 223 197 142 327 246 250 64 131 236 139
231 236 228 211 206 212 217 201 185 188 185 157 150 184 130 156 246 196 185 192 244 242 255 280 33 330 26 43 292 330 354 343 302 335 310 289 185 179 198 153 195 219 234 164 83 59 140
231 222 198 194 195 209 208 192 178 174 177 117 117 172 113 127 231 235 243 212 204 237 245 316 218 327 212 75 294 249 5 333 2 294 37 280 12 354 340 31 43 321 310 351 12 293 221